Main page
METAR-TAF:

METAR-TAF

Airports :

Venice Municipal Airport

Venice, Florida, United States

latitude: 27-04-18N, longitude: 082-26-25W, elevation: 16 ft

Current weather observation

The report was made 23 minutes ago, at 11:55 UTC
Wind 13 mph from the Northeast
Temperature 77°F
Humidity 83%
Pressure 29.99 in. Hg
Visibility: 6 miles
Overcast at a height of 2200 ft
haze

METAR: KVNC 211155Z AUTO 05011KT 6SM HZ OVC022 25/22 A2999 RMK AO2

Time: 08:18 (12:18 UTC)


TAF: missing

Weather observations and forecasts of more than 4000 airports (METAR and TAF reports).

The available stations are represented by yellow and red dots on the map.

Hover mouse over dot to see the name of the station.

Then click to see weather observations and forecasts.

To change the map : click on the green buttons with a black cross to zoom in, on the green button with a dash to zoom out, or on the green arrows for adjacent maps.


METAR-TAF: